Time,TemperatureF,DewpointF,PressureIn,WindDirection,WindDirectionDegrees,WindSpeedMPH,WindSpeedGustMPH,Humidity,HourlyPrecipIn,Conditions,Clouds,dailyrainin,SoftwareType,DateUTC
2013-07-14 00:05:00,69.3,68.7,30.14,West,270,0.0,-999.0,98,-99.99,,,0.00,Acu-Link.com,2013-07-14 04:05:00,
2013-07-14 00:20:00,69.3,68.7,30.15,South,180,0.0,-999.0,98,-99.99,,,0.00,Acu-Link.com,2013-07-14 04:20:00,
2013-07-14 00:36:00,68.9,68.3,30.15,North,0,0.0,-999.0,98,-99.99,,,0.00,Acu-Link.com,2013-07-14 04:36:00,
2013-07-14 00:51:00,68.9,68.3,30.15,SSW,202,0.0,-999.0,98,-99.99,,,0.00,Acu-Link.com,2013-07-14 04:51:00,
2013-07-14 01:08:00,68.4,67.8,30.16,NNW,337,0.0,-999.0,98,-99.99,,,0.00,Acu-Link.com,2013-07-14 05:08:00,
2013-07-14 01:26:00,68.4,67.8,30.16,ESE,112,0.0,-999.0,98,-99.99,,,0.00,Acu-Link.com,2013-07-14 05:26:00,
2013-07-14 01:44:00,68.2,67.6,30.15,NNW,337,0.0,-999.0,98,-99.99,,,0.00,Acu-Link.com,2013-07-14 05:44:00,
2013-07-14 02:01:00,68.0,67.4,30.14,North,0,0.0,-999.0,98,-99.99,,,0.00,Acu-Link.com,2013-07-14 06:01:00,
2013-07-14 02:19:00,68.2,67.6,30.15,NE,45,0.0,-999.0,98,-99.99,,,0.00,Acu-Link.com,2013-07-14 06:19:00,
2013-07-14 02:37:00,68.7,68.1,30.15,ESE,112,0.0,-999.0,98,-99.99,,,0.00,Acu-Link.com,2013-07-14 06:37:00,
2013-07-14 02:55:00,68.2,67.6,30.15,NNE,22,0.0,-999.0,98,-99.99,,,0.00,Acu-Link.com,2013-07-14 06:55:00,
2013-07-14 03:13:00,67.8,67.2,30.15,SSW,202,0.0,-999.0,98,-99.99,,,0.00,Acu-Link.com,2013-07-14 07:13:00,
2013-07-14 03:30:00,67.5,66.9,30.15,NNE,22,0.0,-999.0,98,-99.99,,,0.00,Acu-Link.com,2013-07-14 07:30:00,
2013-07-14 03:48:00,67.6,67.0,30.16,West,270,0.0,-999.0,98,-99.99,,,0.00,Acu-Link.com,2013-07-14 07:48:00,
2013-07-14 04:03:00,67.5,66.9,30.16,NNW,337,0.0,-999.0,98,-99.99,,,0.00,Acu-Link.com,2013-07-14 08:03:00,
2013-07-14 04:18:00,67.5,66.9,30.15,NNW,337,0.0,-999.0,98,-99.99,,,0.00,Acu-Link.com,2013-07-14 08:18:00,
2013-07-14 04:34:00,67.8,67.2,30.16,SSE,157,0.0,-999.0,98,-99.99,,,0.00,Acu-Link.com,2013-07-14 08:34:00,
2013-07-14 04:49:00,68.0,67.4,30.15,West,270,0.0,-999.0,98,-99.99,,,0.00,Acu-Link.com,2013-07-14 08:49:00,
2013-07-14 05:04:00,68.0,67.4,30.17,West,270,0.0,-999.0,98,-99.99,,,0.00,Acu-Link.com,2013-07-14 09:04:00,
2013-07-14 05:19:00,68.0,67.4,30.17,NW,315,0.0,-999.0,98,-99.99,,,0.00,Acu-Link.com,2013-07-14 09:19:00,
2013-07-14 05:34:00,68.2,67.6,30.17,West,270,0.0,-999.0,98,-99.99,,,0.00,Acu-Link.com,2013-07-14 09:34:00,
2013-07-14 05:49:00,68.2,67.6,30.18,NW,315,0.0,-999.0,98,-99.99,,,0.00,Acu-Link.com,2013-07-14 09:49:00,
2013-07-14 06:05:00,68.2,67.6,30.18,NNW,337,0.0,-999.0,98,-99.99,,,0.00,Acu-Link.com,2013-07-14 10:05:00,
2013-07-14 06:20:00,68.4,67.8,30.18,NNE,22,0.0,-999.0,98,-99.99,,,0.00,Acu-Link.com,2013-07-14 10:20:00,
2013-07-14 06:35:00,68.5,67.9,30.20,NE,45,0.0,-999.0,98,-99.99,,,0.00,Acu-Link.com,2013-07-14 10:35:00,
2013-07-14 06:51:00,68.5,67.9,30.20,NNE,22,0.0,-999.0,98,-99.99,,,0.00,Acu-Link.com,2013-07-14 10:51:00,
2013-07-14 07:07:00,68.9,68.3,30.21,NNW,337,0.0,-999.0,98,-99.99,,,0.00,Acu-Link.com,2013-07-14 11:07:00,
2013-07-14 07:24:00,69.4,68.8,30.21,West,270,0.0,-999.0,98,-99.99,,,0.00,Acu-Link.com,2013-07-14 11:24:00,
2013-07-14 07:40:00,69.8,69.2,30.21,West,270,0.0,-999.0,98,-99.99,,,0.00,Acu-Link.com,2013-07-14 11:40:00,
2013-07-14 07:55:00,71.2,70.6,30.21,NNE,22,0.0,-999.0,98,-99.99,,,0.00,Acu-Link.com,2013-07-14 11:55:00,
2013-07-14 08:10:00,71.1,70.5,30.21,ESE,112,0.0,-999.0,98,-99.99,,,0.00,Acu-Link.com,2013-07-14 12:10:00,
2013-07-14 08:25:00,71.4,70.8,30.22,SSW,202,0.0,-999.0,98,-99.99,,,0.00,Acu-Link.com,2013-07-14 12:25:00,
2013-07-14 08:41:00,72.1,71.5,30.22,SE,135,2.2,-999.0,98,-99.99,,,0.00,Acu-Link.com,2013-07-14 12:41:00,
2013-07-14 08:56:00,74.8,74.2,30.22,NE,45,1.7,-999.0,98,-99.99,,,0.00,Acu-Link.com,2013-07-14 12:56:00,
2013-07-14 09:12:00,75.7,75.1,30.21,NNE,22,0.0,-999.0,98,-99.99,,,0.00,Acu-Link.com,2013-07-14 13:12:00,
2013-07-14 09:30:00,77.4,76.8,30.21,NE,45,0.0,-999.0,98,-99.99,,,0.00,Acu-Link.com,2013-07-14 13:30:00,
2013-07-14 09:47:00,80.4,78.2,30.20,SSW,202,0.0,-999.0,93,-99.99,,,0.00,Acu-Link.com,2013-07-14 13:47:00,
2013-07-14 10:04:00,80.8,78.6,30.21,NNE,22,1.7,-999.0,93,-99.99,,,0.00,Acu-Link.com,2013-07-14 14:04:00,
2013-07-14 10:19:00,82.8,78.5,30.19,NNE,22,1.7,-999.0,87,-99.99,,,0.00,Acu-Link.com,2013-07-14 14:19:00,
2013-07-14 10:34:00,84.6,79.9,30.20,NE,45,2.2,-999.0,86,-99.99,,,0.00,Acu-Link.com,2013-07-14 14:34:00,
2013-07-14 10:49:00,84.4,79.4,30.20,WSW,247,1.1,-999.0,85,-99.99,,,0.00,Acu-Link.com,2013-07-14 14:49:00,
2013-07-14 11:05:00,85.8,79.3,30.19,NE,45,4.2,-999.0,81,-99.99,,,0.00,Acu-Link.com,2013-07-14 15:05:00,
2013-07-14 11:20:00,85.5,78.6,30.19,NNE,22,2.2,-999.0,80,-99.99,,,0.00,Acu-Link.com,2013-07-14 15:20:00,
2013-07-14 11:35:00,86.0,79.1,30.19,WNW,292,4.7,-999.0,80,-99.99,,,0.00,Acu-Link.com,2013-07-14 15:35:00,
2013-07-14 11:50:00,87.6,80.3,30.19,NNE,22,2.7,-999.0,79,-99.99,,,0.00,Acu-Link.com,2013-07-14 15:50:00,
2013-07-14 12:05:00,86.2,78.5,30.19,West,270,1.7,-999.0,78,-99.99,,,0.00,Acu-Link.com,2013-07-14 16:05:00,
2013-07-14 12:20:00,87.3,77.6,30.20,South,180,1.1,-999.0,73,-99.99,,,0.00,Acu-Link.com,2013-07-14 16:20:00,
2013-07-14 12:36:00,86.9,78.0,30.18,NW,315,3.7,-999.0,75,-99.99,,,0.00,Acu-Link.com,2013-07-14 16:36:00,
2013-07-14 12:51:00,91.0,80.3,30.18,South,180,2.7,-999.0,71,-99.99,,,0.00,Acu-Link.com,2013-07-14 16:51:00,
2013-07-14 13:06:00,88.7,78.5,30.18,SW,225,2.2,-999.0,72,-99.99,,,0.00,Acu-Link.com,2013-07-14 17:06:00,
2013-07-14 13:21:00,90.3,79.2,30.18,SSE,157,6.3,-999.0,70,-99.99,,,0.00,Acu-Link.com,2013-07-14 17:21:00,
2013-07-14 13:36:00,90.1,79.4,30.17,SSW,202,4.2,-999.0,71,-99.99,,,0.00,Acu-Link.com,2013-07-14 17:36:00,
2013-07-14 13:51:00,91.6,79.1,30.16,South,180,2.7,-999.0,67,-99.99,,,0.00,Acu-Link.com,2013-07-14 17:51:00,
2013-07-14 14:06:00,91.2,76.8,30.15,South,180,2.7,-999.0,63,-99.99,,,0.00,Acu-Link.com,2013-07-14 18:06:00,
2013-07-14 14:24:00,91.2,78.7,30.16,SSW,202,2.7,-999.0,67,-99.99,,,0.00,Acu-Link.com,2013-07-14 18:24:00,
2013-07-14 14:40:00,91.6,77.7,30.16,ESE,112,2.7,-999.0,64,-99.99,,,0.00,Acu-Link.com,2013-07-14 18:40:00,
2013-07-14 14:55:00,91.6,76.7,30.15,West,270,2.7,-999.0,62,-99.99,,,0.00,Acu-Link.com,2013-07-14 18:55:00,
2013-07-14 15:12:00,91.8,76.9,30.16,SE,135,5.3,-999.0,62,-99.99,,,0.00,Acu-Link.com,2013-07-14 19:12:00,
2013-07-14 15:27:00,91.6,77.2,30.15,North,0,2.2,-999.0,63,-99.99,,,0.00,Acu-Link.com,2013-07-14 19:27:00,
2013-07-14 15:44:00,91.8,78.3,30.16,North,0,2.7,-999.0,65,-99.99,,,0.00,Acu-Link.com,2013-07-14 19:44:00,
2013-07-14 16:02:00,91.4,77.5,30.14,NNW,337,1.7,-999.0,64,-99.99,,,0.00,Acu-Link.com,2013-07-14 20:02:00,
2013-07-14 16:17:00,91.4,76.5,30.14,SSW,202,3.7,-999.0,62,-99.99,,,0.00,Acu-Link.com,2013-07-14 20:17:00,
2013-07-14 16:32:00,91.6,77.2,30.14,WNW,292,2.7,-999.0,63,-99.99,,,0.00,Acu-Link.com,2013-07-14 20:32:00,
2013-07-14 16:47:00,91.2,76.8,30.15,WNW,292,2.2,-999.0,63,-99.99,,,0.00,Acu-Link.com,2013-07-14 20:47:00,
2013-07-14 17:03:00,91.2,76.8,30.14,West,270,2.7,-999.0,63,-99.99,,,0.00,Acu-Link.com,2013-07-14 21:03:00,
2013-07-14 17:18:00,92.1,77.2,30.13,SSW,202,1.7,-999.0,62,-99.99,,,0.00,Acu-Link.com,2013-07-14 21:18:00,
2013-07-14 17:33:00,93.4,77.4,30.14,NW,315,1.7,-999.0,60,-99.99,,,0.00,Acu-Link.com,2013-07-14 21:33:00,
2013-07-14 17:50:00,99.1,77.7,30.13,SSE,157,2.2,-999.0,51,-99.99,,,0.00,Acu-Link.com,2013-07-14 21:50:00,
2013-07-14 18:05:00,99.1,78.3,30.13,NNE,22,1.1,-999.0,52,-99.99,,,0.00,Acu-Link.com,2013-07-14 22:05:00,
2013-07-14 18:21:00,96.4,77.0,30.12,West,270,1.1,-999.0,54,-99.99,,,0.00,Acu-Link.com,2013-07-14 22:21:00,
2013-07-14 18:36:00,96.1,77.3,30.13,SSW,202,0.0,-999.0,55,-99.99,,,0.00,Acu-Link.com,2013-07-14 22:36:00,
2013-07-14 18:53:00,96.1,76.7,30.13,NW,315,0.0,-999.0,54,-99.99,,,0.00,Acu-Link.com,2013-07-14 22:53:00,
2013-07-14 19:08:00,95.5,76.7,30.13,West,270,1.7,-999.0,55,-99.99,,,0.00,Acu-Link.com,2013-07-14 23:08:00,
2013-07-14 19:23:00,94.1,76.0,30.13,NNW,337,2.2,-999.0,56,-99.99,,,0.00,Acu-Link.com,2013-07-14 23:23:00,
2013-07-14 19:38:00,90.7,75.9,30.13,North,0,0.0,-999.0,62,-99.99,,,0.00,Acu-Link.com,2013-07-14 23:38:00,
2013-07-14 19:53:00,87.4,76.0,30.12,WNW,292,0.0,-999.0,69,-99.99,,,0.00,Acu-Link.com,2013-07-14 23:53:00,
2013-07-14 20:08:00,85.6,75.9,30.13,NNE,22,0.0,-999.0,73,-99.99,,,0.00,Acu-Link.com,2013-07-15 00:08:00,
2013-07-14 20:24:00,83.5,75.1,30.13,North,0,0.0,-999.0,76,-99.99,,,0.00,Acu-Link.com,2013-07-15 00:24:00,
2013-07-14 20:39:00,81.3,75.3,30.13,North,0,0.0,-999.0,82,-99.99,,,0.00,Acu-Link.com,2013-07-15 00:39:00,
2013-07-14 20:54:00,79.9,75.3,30.14,WNW,292,0.0,-999.0,86,-99.99,,,0.00,Acu-Link.com,2013-07-15 00:54:00,
2013-07-14 21:09:00,78.4,74.5,30.14,NE,45,0.0,-999.0,88,-99.99,,,0.00,Acu-Link.com,2013-07-15 01:09:00,
2013-07-14 21:24:00,77.2,74.7,30.15,NNW,337,0.0,-999.0,92,-99.99,,,0.00,Acu-Link.com,2013-07-15 01:24:00,
2013-07-14 21:39:00,76.1,74.9,30.14,NW,315,0.0,-999.0,96,-99.99,,,0.00,Acu-Link.com,2013-07-15 01:39:00,
2013-07-14 21:55:00,75.6,75.0,30.15,WNW,292,0.0,-999.0,98,-99.99,,,0.00,Acu-Link.com,2013-07-15 01:55:00,
2013-07-14 22:10:00,74.8,74.2,30.16,NW,315,0.0,-999.0,98,-99.99,,,0.00,Acu-Link.com,2013-07-15 02:10:00,
2013-07-14 22:25:00,74.1,73.5,30.16,ENE,67,0.0,-999.0,98,-99.99,,,0.00,Acu-Link.com,2013-07-15 02:25:00,
2013-07-14 22:40:00,73.8,73.2,30.15,NE,45,0.0,-999.0,98,-99.99,,,0.00,Acu-Link.com,2013-07-15 02:40:00,
2013-07-14 22:55:00,73.0,72.4,30.15,WSW,247,0.0,-999.0,98,-99.99,,,0.00,Acu-Link.com,2013-07-15 02:55:00,
2013-07-14 23:13:00,72.7,72.1,30.15,WNW,292,0.0,-999.0,98,-99.99,,,0.00,Acu-Link.com,2013-07-15 03:13:00,
2013-07-14 23:28:00,72.0,71.4,30.14,NNE,22,0.0,-999.0,98,-99.99,,,0.00,Acu-Link.com,2013-07-15 03:28:00,
2013-07-14 23:46:00,72.0,71.4,30.14,ENE,67,0.0,-999.0,98,-99.99,,,0.00,Acu-Link.com,2013-07-15 03:46:00,